K9BM Weather Reports


time (UTC)temp
F
wind
direction
speed
knots
gust
knots
rain 1hr
in
rain 24hr
in
rain mn
in
humidity
%
barometer
mb
20260901024005 67 144 6.1 8.7 0.00 0.00 0.00 31 1008.5
20260901023504 68 140 7.0 10.4 0.00 0.00 0.00 29 1008.3
20260901023005 68 136 7.0 10.4 0.00 0.00 0.00 28 1008.3
20260901022504 69 135 7.8 10.4 0.00 0.00 0.00 28 1008.4
20260901022004 69 135 8.7 10.4 0.00 0.00 0.00 27 1008.4
20260901021504 69 139 7.8 10.4 0.00 0.00 0.00 28 1008.4
20260901021004 69 136 7.8 8.7 0.00 0.00 0.00 28 1008.3
20260901020004 71 130 7.0 8.7 0.00 0.00 0.00 27 1008.2
20260901015504 72 127 7.0 10.4 0.00 0.00 0.00 25 1008.3
20260901015005 73 125 7.0 11.3 0.00 0.00 0.00 25 1008.2
20260901014504 73 123 8.7 11.3 0.00 0.00 0.00 25 1008.4
20260901014004 73 121 7.8 11.3 0.00 0.00 0.00 25 1008.5
20260901013504 74 116 8.7 11.3 0.00 0.00 0.00 25 1008.4
20260901013004 74 112 9.6 11.3 0.00 0.00 0.00 25 1008.3
20260901012504 75 111 8.7 11.3 0.00 0.00 0.00 25 1008.3
20260901012004 75 114 7.0 10.4 0.00 0.00 0.00 25 1008.3
20260901011504 76 114 7.8 11.3 0.00 0.00 0.00 24 1008.3
20260901011004 76 105 7.8 11.3 0.00 0.00 0.00 23 1008.2
20260901010004 77 97 7.8 12.2 0.00 0.00 0.00 22 1008.2
20260901005504 77 96 7.8 12.2 0.00 0.00 0.00 22 1008.2
20260901004504 78 97 7.8 11.3 0.00 0.00 0.00 21 1008.2
20260901003503 79 97 7.8 11.3 0.00 0.00 0.00 20 1008.2
20260901003004 79 96 7.0 10.4 0.00 0.00 0.00 19 1008.2
20260901002503 79 98 6.1 8.7 0.00 0.00 0.00 18 1008.3
20260901001504 79 105 7.8 13.9 0.00 0.00 0.00 18 1008.4
20260901001004 79 76 7.0 10.4 0.00 0.00 0.00 18 1008.4
20260901000004 79 63 3.5 10.4 0.00 0.00 0.00 18 1008.4
20260831235504 79 57 5.2 10.4 0.00 0.00 0.00 18 1008.5
20260831234504 79 69 6.1 11.3 0.00 0.00 0.00 18 1008.6
20260831234004 79 80 4.3 11.3 0.00 0.00 0.00 17 1008.6
20260831233004 80 71 3.5 10.4 0.00 0.00 0.00 17 1008.6
20260831232004 80 60 0.9 2.6 0.00 0.00 0.00 17 1008.7
20260831231004 80 62 2.6 7.0 0.00 0.00 0.00 16 1008.8
20260831230004 81 108 2.6 7.8 0.00 0.00 0.00 16 1008.9
20260831225004 82 136 3.5 7.8 0.00 0.00 0.00 16 1009.0
20260831224504 82 140 4.3 7.8 0.00 0.00 0.00 16 1009.1
20260831223503 81 116 2.6 10.4 0.00 0.00 0.00 16 1009.1
20260831222506 80 166 7.8 12.2 0.00 0.00 0.00 17 1009.1
20260831222006 80 148 6.1 10.4 0.00 0.00 0.00 17 1009.1
20260831221506 79 27 4.3 7.8 0.00 0.00 0.00 18 1009.2
20260831221007 79 12 1.7 7.0 0.00 0.00 0.00 17 1009.3
20260831220006 79 48 1.7 6.1 0.00 0.00 0.00 17 1009.4
20260831215506 79 310 0.9 7.8 0.00 0.00 0.00 16 1009.4
20260831215006 79 285 4.3 7.8 0.00 0.00 0.00 18 1009.6
20260831214506 80 44 3.5 6.1 0.00 0.00 0.00 16 1009.6
20260831214006 79 136 0.9 10.4 0.00 0.00 0.00 17 1009.7
20260831213505 78 136 1.7 11.3 0.00 0.00 0.00 16 1009.8
20260831213006 77 167 6.1 11.3 0.00 0.00 0.00 17 1009.9
20260831212506 77 320 3.5 12.2 0.00 0.00 0.00 18 1010.0
20260831212006 76 233 6.1 12.2 0.00 0.00 0.00 18 1010.1
20260831211506 76 339 7.8 12.2 0.00 0.00 0.00 18 1010.2
20260831211006 76 317 7.0 11.3 0.00 0.00 0.00 18 1010.2
20260831210006 76 347 3.5 12.2 0.00 0.00 0.00 17 1010.4
20260831205506 76 293 7.8 12.2 0.00 0.00 0.00 18 1010.4
20260831205005 76 288 5.2 11.3 0.00 0.00 0.00 18 1010.4
20260831204506 76 246 0.9 10.4 0.00 0.00 0.00 18 1010.5
20260831204006 75 284 2.6 10.4 0.00 0.00 0.00 18 1010.7
20260831203506 76 274 7.0 12.2 0.00 0.00 0.00 18 1010.8
20260831203006 76 285 7.0 13.0 0.00 0.00 0.00 19 1010.8
20260831202506 76 281 7.8 13.0 0.00 0.00 0.00 18 1010.8
20260831202006 76 286 8.7 13.0 0.00 0.00 0.00 18 1010.8
20260831195506 75 271 10.4 14.8 0.00 0.00 0.00 17 1011.1
20260831194505 75 271 7.0 11.3 0.00 0.00 0.00 19 1011.2
20260831193506 74 270 3.5 17.4 0.00 0.00 0.00 18 1011.3
20260831192006 73 279 7.8 13.9 0.00 0.00 0.00 19 1011.6
20260831191506 73 260 11.3 13.9 0.00 0.00 0.00 18 1011.6
20260831191006 72 241 6.1 13.9 0.00 0.00 0.00 20 1011.6
20260831190006 72 263 8.7 13.0 0.00 0.00 0.00 20 1011.7
20260831185506 72 264 8.7 17.4 0.00 0.00 0.00 21 1011.7
20260831185006 71 254 8.7 17.4 0.00 0.00 0.00 21 1011.8
20260831184006 71 245 8.7 14.8 0.00 0.00 0.00 21 1011.8
20260831183006 70 251 8.7 17.4 0.00 0.00 0.00 22 1012.0
20260831182505 70 245 11.3 17.4 0.00 0.00 0.00 22 1012.1
20260831181506 70 245 8.7 15.6 0.00 0.00 0.00 23 1012.1
20260831181006 70 266 10.4 15.6 0.00 0.00 0.00 23 1012.2
20260831180006 69 258 7.8 13.9 0.00 0.00 0.00 24 1012.2
20260831175506 69 248 7.8 13.9 0.00 0.00 0.00 24 1012.4
20260831175006 69 249 7.8 13.9 0.00 0.00 0.00 23 1012.4
20260831174506 69 266 9.6 13.9 0.00 0.00 0.00 25 1012.5
20260831174006 69 255 10.4 13.0 0.00 0.00 0.00 23 1012.6
20260831173505 69 254 6.1 12.2 0.00 0.00 0.00 24 1012.6
20260831173006 68 266 6.1 13.0 0.00 0.00 0.00 25 1012.6
20260831172506 68 241 7.0 13.0 0.00 0.00 0.00 25 1012.7
20260831172006 67 261 7.0 12.2 0.00 0.00 0.00 26 1012.7
20260831170005 66 248 7.8 14.8 0.00 0.00 0.00 27 1012.8
20260831165505 65 239 7.8 15.6 0.00 0.00 0.00 27 1012.8
20260831165006 65 255 11.3 15.6 0.00 0.00 0.00 26 1012.8
20260831164506 65 270 8.7 13.9 0.00 0.00 0.00 27 1012.8
20260831164005 65 255 11.3 13.9 0.00 0.00 0.00 27 1012.8
20260831163006 64 274 8.7 14.8 0.00 0.00 0.00 28 1012.7
20260831162006 64 265 8.7 15.6 0.00 0.00 0.00 29 1012.8
20260831161506 64 273 11.3 15.6 0.00 0.00 0.00 28 1012.8
20260831161005 63 270 7.8 12.2 0.00 0.00 0.00 30 1012.8
20260831160006 63 251 8.7 14.8 0.00 0.00 0.00 31 1012.8
20260831155506 62 271 8.7 14.8 0.00 0.00 0.00 32 1012.7
20260831155006 62 253 9.6 14.8 0.00 0.00 0.00 32 1012.7
20260831154505 62 256 8.7 13.0 0.00 0.00 0.00 32 1012.8
20260831154006 62 272 8.7 13.0 0.00 0.00 0.00 32 1012.7
20260831153506 61 264 7.8 15.6 0.00 0.00 0.00 32 1012.6
20260831153006 61 264 9.6 15.6 0.00 0.00 0.00 33 1012.7
20260831152505 61 265 10.4 13.9 0.00 0.00 0.00 32 1012.8
20260831152005 60 269 10.4 15.6 0.00 0.00 0.00 33 1012.7
20260831151005 60 276 11.3 14.8 0.00 0.00 0.00 33 1012.6
20260831150006 60 261 11.3 15.6 0.00 0.00 0.00 34 1012.6
20260831145006 59 264 10.4 15.6 0.00 0.00 0.00 35 1012.5
20260831144505 59 263 11.3 15.6 0.00 0.00 0.00 35 1012.4
20260831144006 59 243 9.6 17.4 0.00 0.00 0.00 35 1012.4
20260831143006 58 264 11.3 17.4 0.00 0.03 0.00 36 1012.1
20260831142505 58 253 12.2 18.2 0.00 0.05 0.00 37 1012.0
20260831142006 58 244 10.4 18.2 0.00 0.07 0.00 37 1011.9
20260831141505 58 240 11.3 17.4 0.00 0.08 0.00 37 1011.8
20260831141006 57 244 10.4 17.4 0.00 0.09 0.00 37 1011.9
20260831140005 57 246 9.6 17.4 0.00 0.11 0.00 37 1011.8
20260831135006 57 245 12.2 20.0 0.00 0.11 0.00 36 1011.6
20260831132006 57 254 15.6 20.0 0.00 0.11 0.00 36 1011.4
20260831131506 56 249 14.8 20.9 0.00 0.11 0.00 36 1011.4
20260831131006 56 251 15.6 20.9 0.00 0.11 0.00 38 1011.3
20260831130005 55 243 13.0 19.1 0.00 0.11 0.00 39 1011.1
20260831125006 55 246 14.8 21.7 0.00 0.11 0.00 39 1011.0
20260831124506 55 245 13.9 21.7 0.00 0.11 0.00 40 1010.9
20260831124005 55 243 13.9 20.9 0.00 0.11 0.00 40 1010.9
20260831122505 54 244 13.9 20.0 0.00 0.11 0.00 41 1010.7
20260831122006 53 242 12.2 17.4 0.00 0.11 0.00 43 1010.7
20260831121506 53 236 8.7 13.9 0.00 0.11 0.00 44 1010.7
20260831121005 53 234 9.6 17.4 0.00 0.11 0.00 44 1010.7
20260831120005 53 234 10.4 14.8 0.00 0.11 0.00 45 1010.7
20260831115506 53 231 8.7 14.8 0.00 0.11 0.00 45 1010.7
20260831115006 53 235 8.7 12.2 0.00 0.12 0.00 45 1010.7
20260831114506 53 236 8.7 12.2 0.00 0.12 0.00 46 1010.8
20260831114006 53 234 8.7 12.2 0.00 0.12 0.00 46 1010.8
20260831113506 53 231 8.7 11.3 0.00 0.12 0.00 47 1010.8
20260831113005 53 233 8.7 12.2 0.00 0.12 0.00 47 1010.8
20260831112506 53 229 8.7 12.2 0.00 0.12 0.00 47 1010.8
20260831112005 53 229 7.8 11.3 0.00 0.12 0.00 47 1010.7
20260831111505 53 226 7.8 11.3 0.00 0.12 0.00 47 1010.8
20260831111005 53 227 7.0 11.3 0.00 0.12 0.00 47 1010.8
20260831110005 53 232 7.8 10.4 0.00 0.12 0.00 47 1010.9
20260831105506 53 232 7.8 10.4 0.00 0.12 0.00 46 1010.9
20260831105006 53 228 7.0 11.3 0.00 0.12 0.00 46 1010.8
20260831104505 53 228 7.8 12.2 0.00 0.12 0.00 46 1010.8
20260831104005 53 230 8.7 13.9 0.00 0.12 0.00 46 1010.8
20260831103005 53 232 8.7 13.9 0.00 0.12 0.00 46 1010.7
20260831102505 53 231 7.8 12.2 0.00 0.12 0.00 46 1010.7
20260831101505 53 231 7.8 11.3 0.00 0.12 0.00 48 1010.8
20260831101006 53 225 7.0 11.3 0.00 0.12 0.00 48 1010.7
20260831100005 53 231 6.1 10.4 0.00 0.12 0.00 48 1010.7
20260831095506 53 212 6.1 10.4 0.00 0.12 0.00 48 1010.7
20260831095006 53 229 6.1 10.4 0.00 0.12 0.00 48 1010.7
20260831094506 53 231 6.1 10.4 0.00 0.12 0.00 48 1010.7
20260831094005 53 231 6.1 10.4 0.00 0.12 0.00 48 1010.7
20260831093505 53 231 6.1 10.4 0.00 0.12 0.00 48 1010.7
20260831093005 53 233 6.1 10.4 0.00 0.12 0.00 48 1010.7
20260831092506 53 231 6.1 10.4 0.00 0.12 0.00 48 1010.8
20260831092006 53 230 6.1 8.7 0.00 0.12 0.00 48 1010.7
20260831091505 53 222 5.2 8.7 0.00 0.12 0.00 48 1010.7
20260831090005 53 229 5.2 8.7 0.00 0.12 0.00 49 1010.7
20260831085505 52 210 5.2 8.7 0.00 0.12 0.00 49 1010.8
20260831085005 52 205 6.1 10.4 0.00 0.12 0.00 50 1010.7
20260831084506 52 206 7.0 10.4 0.00 0.12 0.00 50 1010.7
20260831083006 53 213 4.3 7.8 0.00 0.12 0.00 49 1010.7
20260831082506 53 207 4.3 8.7 0.00 0.12 0.00 49 1010.7
20260831082006 53 202 5.2 8.7 0.00 0.12 0.00 49 1010.7
20260831081506 53 200 5.2 7.8 0.00 0.12 0.00 48 1010.7
20260831081006 54 220 3.5 7.8 0.00 0.12 0.00 47 1010.7
20260831080006 54 218 4.3 7.8 0.00 0.12 0.00 47 1010.6
20260831075505 54 213 4.3 7.8 0.00 0.12 0.00 48 1010.6
20260831075006 54 197 4.3 7.8 0.00 0.12 0.00 47 1010.5
20260831074505 54 202 3.5 7.8 0.00 0.12 0.00 48 1010.4
20260831074006 54 217 4.3 8.7 0.00 0.12 0.00 48 1010.4
20260831073505 54 202 6.1 8.7 0.00 0.12 0.00 48 1010.4
20260831072505 54 199 5.2 8.7 0.00 0.12 0.00 48 1010.3
20260831072006 54 207 4.3 7.0 0.00 0.12 0.00 48 1010.3
20260831071505 54 206 5.2 7.8 0.00 0.12 0.00 47 1010.3
20260831071005 54 205 5.2 7.8 0.00 0.12 0.00 48 1010.2
20260831070005 54 201 6.1 10.4 0.00 0.12 0.00 48 1010.1
20260831065505 55 196 7.8 8.7 0.00 0.12 0.00 47 1010.0
20260831065005 55 211 4.3 8.7 0.00 0.12 0.00 46 1010.0
20260831064505 55 230 5.2 7.8 0.00 0.12 0.00 46 1009.9
20260831064005 55 229 5.2 6.1 0.00 0.12 0.00 47 1009.8
20260831063505 55 223 4.3 6.1 0.00 0.12 0.00 48 1009.8
20260831063005 55 222 4.3 8.7 0.00 0.12 0.00 48 1009.8
20260831062005 55 204 5.2 8.7 0.00 0.12 0.00 47 1009.7
20260831061505 55 201 7.0 8.7 0.00 0.12 0.00 47 1009.6
20260831061006 56 205 5.2 8.7 0.00 0.12 0.00 46 1009.5
20260831060006 56 217 5.2 7.8 0.00 0.12 0.00 46 1009.3
20260831055505 56 226 5.2 8.7 0.00 0.12 0.12 46 1009.2
20260831055006 56 218 5.2 8.7 0.00 0.12 0.12 46 1009.2
20260831054505 56 208 5.2 8.7 0.00 0.12 0.12 46 1009.1
20260831054005 56 218 5.2 8.7 0.00 0.12 0.12 46 1009.1
20260831053505 56 218 5.2 8.7 0.00 0.12 0.12 47 1009.1
20260831053006 56 216 4.3 7.8 0.00 0.12 0.12 47 1009.0
20260831052505 56 213 5.2 8.7 0.00 0.12 0.12 47 1009.0
20260831052005 56 229 5.2 8.7 0.00 0.12 0.12 46 1009.1
20260831051005 56 208 4.3 7.0 0.00 0.13 0.12 46 1009.1
20260831050005 57 233 4.3 7.0 0.00 0.13 0.12 43 1009.1
20260831045505 57 227 4.3 7.8 0.00 0.13 0.12 43 1009.1
20260831045005 57 203 4.3 7.8 0.00 0.13 0.12 43 1009.1
20260831044505 57 200 5.2 8.7 0.00 0.13 0.12 42 1009.0
20260831043505 58 198 5.2 7.8 0.00 0.13 0.12 40 1009.1
20260831043005 58 205 2.6 6.1 0.00 0.13 0.12 38 1009.1
20260831042005 58 199 4.3 8.7 0.00 0.13 0.12 38 1008.9
20260831041505 58 184 3.5 10.4 0.00 0.13 0.12 39 1008.9
20260831040005 59 190 4.3 5.2 0.00 0.13 0.12 38 1008.7
20260831035505 59 201 2.6 7.0 0.00 0.13 0.12 37 1008.6
20260831035005 59 199 2.6 7.0 0.00 0.13 0.12 37 1008.7
20260831034505 59 194 5.2 10.4 0.00 0.13 0.12 38 1008.7
20260831034005 59 184 6.1 10.4 0.00 0.13 0.12 39 1008.7
20260831033505 60 182 6.1 7.8 0.00 0.13 0.12 40 1008.6
20260831033005 60 196 4.3 7.0 0.00 0.13 0.12 39 1008.5
20260831032505 60 192 4.3 7.0 0.00 0.13 0.12 40 1008.5
20260831032005 60 226 4.3 7.8 0.00 0.13 0.12 39 1008.5
20260831031505 60 209 2.6 7.8 0.00 0.13 0.12 40 1008.4
20260831031005 60 201 5.2 7.8 0.00 0.13 0.12 40 1008.4
20260831030005 61 228 4.3 5.2 0.00 0.13 0.12 38 1008.3
20260831025505 61 230 2.6 5.2 0.00 0.13 0.12 38 1008.1
20260831025006 61 230 4.3 5.2 0.00 0.13 0.12 37 1008.0
20260831024506 61 230 2.6 5.2 0.00 0.13 0.12 37 1008.0